Time,TemperatureF,DewpointF,PressureIn,WindDirection,WindDirectionDegrees,WindSpeedMPH,WindSpeedGustMPH,Humidity,HourlyPrecipIn,Conditions,Clouds,dailyrainin,SoftwareType,DateUTC
2014-01-01 00:04:00,24.2,17.0,30.17,West,261,0.0,3.0,75,0.00,,,0.00,weatherlink.com 1.10,2014-01-01 07:04:00,
2014-01-01 00:19:00,24.5,17.0,30.16,West,261,1.0,3.0,74,0.00,,,0.00,weatherlink.com 1.10,2014-01-01 07:19:00,
2014-01-01 00:34:00,24.8,17.0,30.16,West,261,0.0,3.0,73,0.00,,,0.00,weatherlink.com 1.10,2014-01-01 07:34:00,
2014-01-01 00:49:00,24.5,17.0,30.15,West,261,1.0,2.0,73,0.00,,,0.00,weatherlink.com 1.10,2014-01-01 07:49:00,
2014-01-01 01:04:00,25.0,18.0,30.14,West,261,0.0,2.0,74,0.00,,,0.00,weatherlink.com 1.10,2014-01-01 08:04:00,
2014-01-01 01:19:00,25.5,17.0,30.14,West,261,2.0,3.0,71,0.00,,,0.00,weatherlink.com 1.10,2014-01-01 08:19:00,
2014-01-01 01:34:00,25.9,17.0,30.12,West,259,2.0,4.0,70,0.00,,,0.00,weatherlink.com 1.10,2014-01-01 08:34:00,
2014-01-01 01:49:00,26.1,17.0,30.12,West,259,0.0,3.0,69,0.00,,,0.00,weatherlink.com 1.10,2014-01-01 08:49:00,
2014-01-01 02:04:00,25.4,17.0,30.12,West,259,0.0,2.0,69,0.00,,,0.00,weatherlink.com 1.10,2014-01-01 09:04:00,
2014-01-01 02:19:00,24.0,16.0,30.12,West,259,0.0,2.0,72,0.00,,,0.00,weatherlink.com 1.10,2014-01-01 09:19:00,
2014-01-01 02:34:00,23.9,16.0,30.11,West,259,0.0,2.0,73,0.00,,,0.00,weatherlink.com 1.10,2014-01-01 09:34:00,
2014-01-01 02:49:00,23.1,15.0,30.12,West,259,0.0,1.0,72,0.00,,,0.00,weatherlink.com 1.10,2014-01-01 09:49:00,
2014-01-01 03:04:00,22.7,16.0,30.10,West,259,0.0,2.0,76,0.00,,,0.00,weatherlink.com 1.10,2014-01-01 10:04:00,
2014-01-01 03:19:00,23.5,16.0,30.09,West,259,0.0,4.0,74,0.00,,,0.00,weatherlink.com 1.10,2014-01-01 10:19:00,
2014-01-01 03:34:00,22.0,16.0,30.09,West,259,0.0,2.0,76,0.00,,,0.00,weatherlink.com 1.10,2014-01-01 10:34:00,
2014-01-01 03:49:00,22.1,16.0,30.09,West,259,2.0,3.0,77,0.00,,,0.00,weatherlink.com 1.10,2014-01-01 10:49:00,
2014-01-01 04:05:00,23.1,16.0,30.09,WSW,258,0.0,4.0,75,0.00,,,0.00,weatherlink.com 1.10,2014-01-01 11:05:00,
2014-01-01 04:20:00,23.5,16.0,30.08,WSW,258,0.0,3.0,74,0.00,,,0.00,weatherlink.com 1.10,2014-01-01 11:20:00,
2014-01-01 04:35:00,23.8,17.0,30.07,WSW,258,0.0,3.0,75,0.00,,,0.00,weatherlink.com 1.10,2014-01-01 11:35:00,
2014-01-01 04:50:00,24.0,17.0,30.07,WSW,258,0.0,0.0,74,0.00,,,0.00,weatherlink.com 1.10,2014-01-01 11:50:00,
2014-01-01 05:05:00,24.1,17.0,30.07,WSW,258,1.0,3.0,73,0.00,,,0.00,weatherlink.com 1.10,2014-01-01 12:05:00,
2014-01-01 05:20:00,23.8,17.0,30.06,WSW,258,0.0,3.0,74,0.00,,,0.00,weatherlink.com 1.10,2014-01-01 12:20:00,
2014-01-01 05:35:00,23.2,16.0,30.05,WSW,258,0.0,4.0,75,0.00,,,0.00,weatherlink.com 1.10,2014-01-01 12:35:00,
2014-01-01 05:50:00,23.9,16.0,30.06,WSW,257,0.0,2.0,73,0.00,,,0.00,weatherlink.com 1.10,2014-01-01 12:50:00,
2014-01-01 06:05:00,24.3,17.0,30.07,WSW,257,0.0,3.0,73,0.00,,,0.00,weatherlink.com 1.10,2014-01-01 13:05:00,
2014-01-01 06:20:00,24.5,17.0,30.07,WSW,257,0.0,1.0,72,0.00,,,0.00,weatherlink.com 1.10,2014-01-01 13:20:00,
2014-01-01 06:35:00,24.0,17.0,30.07,WSW,258,0.0,1.0,73,0.00,,,0.00,weatherlink.com 1.10,2014-01-01 13:35:00,
2014-01-01 06:50:00,23.7,16.0,30.08,WSW,258,1.0,1.0,73,0.00,,,0.00,weatherlink.com 1.10,2014-01-01 13:50:00,
2014-01-01 07:05:00,23.8,16.0,30.08,WSW,258,3.0,3.0,73,0.00,,,0.00,weatherlink.com 1.10,2014-01-01 14:05:00,
2014-01-01 07:20:00,23.4,17.0,30.07,WSW,257,0.0,4.0,76,0.00,,,0.00,weatherlink.com 1.10,2014-01-01 14:20:00,
2014-01-01 07:35:00,22.9,16.0,30.08,WSW,257,0.0,0.0,76,0.00,,,0.00,weatherlink.com 1.10,2014-01-01 14:35:00,
2014-01-01 07:50:00,22.9,17.0,30.08,WSW,257,0.0,2.0,77,0.00,,,0.00,weatherlink.com 1.10,2014-01-01 14:50:00,
2014-01-01 08:05:00,22.8,17.0,30.09,WSW,257,0.0,4.0,77,0.00,,,0.00,weatherlink.com 1.10,2014-01-01 15:05:00,
2014-01-01 08:21:00,25.3,18.0,30.10,WSW,257,0.0,0.0,75,0.00,,,0.00,weatherlink.com 1.10,2014-01-01 15:21:00,
2014-01-01 08:36:00,29.1,19.0,30.10,WSW,257,0.0,2.0,67,0.00,,,0.00,weatherlink.com 1.10,2014-01-01 15:36:00,
2014-01-01 08:51:00,31.0,19.0,30.10,WSW,257,0.0,2.0,62,0.00,,,0.00,weatherlink.com 1.10,2014-01-01 15:51:00,
2014-01-01 09:06:00,32.0,19.0,30.11,WSW,257,0.0,3.0,59,0.00,,,0.00,weatherlink.com 1.10,2014-01-01 16:06:00,
2014-01-01 09:21:00,33.9,19.0,30.11,WSW,257,0.0,3.0,55,0.00,,,0.00,weatherlink.com 1.10,2014-01-01 16:21:00,
2014-01-01 09:36:00,36.2,20.0,30.11,WSW,257,0.0,3.0,52,0.00,,,0.00,weatherlink.com 1.10,2014-01-01 16:36:00,
2014-01-01 09:51:00,37.6,20.0,30.11,WSW,257,0.0,2.0,50,0.00,,,0.00,weatherlink.com 1.10,2014-01-01 16:51:00,
2014-01-01 10:06:00,37.9,21.0,30.11,WSW,257,1.0,7.0,50,0.00,,,0.00,weatherlink.com 1.10,2014-01-01 17:06:00,
2014-01-01 10:21:00,38.6,21.0,30.11,WSW,256,2.0,8.0,50,0.00,,,0.00,weatherlink.com 1.10,2014-01-01 17:21:00,
2014-01-01 10:36:00,39.2,21.0,30.10,WSW,256,3.0,7.0,49,0.00,,,0.00,weatherlink.com 1.10,2014-01-01 17:36:00,
2014-01-01 10:51:00,39.4,21.0,30.09,WSW,256,2.0,9.0,48,0.00,,,0.00,weatherlink.com 1.10,2014-01-01 17:51:00,
2014-01-01 11:06:00,39.8,21.0,30.09,West,280,6.0,9.0,48,0.00,,,0.00,weatherlink.com 1.10,2014-01-01 18:06:00,
2014-01-01 11:21:00,40.6,21.0,30.09,West,276,2.0,11.0,46,0.00,,,0.00,weatherlink.com 1.10,2014-01-01 18:21:00,
2014-01-01 11:32:00,40.9,22.2,30.08,West,270,2.0,-999.0,47,0.00,,,0.00,Wunderground v.1.15,2014-01-01 18:32:00,
2014-01-01 11:36:00,41.1,21.0,30.08,West,280,3.0,10.0,45,0.00,,,0.00,weatherlink.com 1.10,2014-01-01 18:36:00,
2014-01-01 11:37:00,40.9,22.2,30.08,West,270,2.0,-999.0,47,0.00,,,0.00,Wunderground v.1.15,2014-01-01 18:37:00,
2014-01-01 11:42:00,40.9,22.2,30.08,West,270,2.0,-999.0,47,0.00,,,0.00,Wunderground v.1.15,2014-01-01 18:42:00,
2014-01-01 11:47:00,41.8,21.5,30.07,West,270,4.0,-999.0,44,0.00,,,0.00,Wunderground v.1.15,2014-01-01 18:47:00,
2014-01-01 11:51:00,41.8,22.0,30.07,West,269,7.0,11.0,45,0.00,,,0.00,weatherlink.com 1.10,2014-01-01 18:51:00,
2014-01-01 11:52:00,41.8,21.5,30.07,West,270,4.0,-999.0,44,0.00,,,0.00,Wunderground v.1.15,2014-01-01 18:52:00,
2014-01-01 11:57:00,41.8,21.5,30.07,West,270,4.0,-999.0,44,0.00,,,0.00,Wunderground v.1.15,2014-01-01 18:57:00,
2014-01-01 12:02:00,41.8,21.5,30.07,West,270,4.0,-999.0,44,0.00,,,0.00,Wunderground v.1.15,2014-01-01 19:02:00,
2014-01-01 12:06:00,41.9,21.0,30.07,West,280,1.0,11.0,43,0.00,,,0.00,weatherlink.com 1.10,2014-01-01 19:06:00,
2014-01-01 12:07:00,41.8,21.5,30.07,West,270,4.0,-999.0,44,0.00,,,0.00,Wunderground v.1.15,2014-01-01 19:07:00,
2014-01-01 12:12:00,41.8,21.5,30.07,West,270,4.0,-999.0,44,0.00,,,0.00,Wunderground v.1.15,2014-01-01 19:12:00,
2014-01-01 12:17:00,42.4,20.9,30.06,WNW,293,3.0,-999.0,42,0.00,,,0.00,Wunderground v.1.15,2014-01-01 19:17:00,
2014-01-01 12:21:00,42.7,21.0,30.06,WNW,301,0.0,9.0,42,0.00,,,0.00,weatherlink.com 1.10,2014-01-01 19:21:00,
2014-01-01 12:22:00,42.4,20.9,30.06,WNW,293,3.0,-999.0,42,0.00,,,0.00,Wunderground v.1.15,2014-01-01 19:22:00,
2014-01-01 12:27:00,42.4,20.9,30.06,WNW,293,3.0,-999.0,42,0.00,,,0.00,Wunderground v.1.15,2014-01-01 19:27:00,
2014-01-01 12:32:00,42.4,20.9,30.06,WNW,293,3.0,-999.0,42,0.00,,,0.00,Wunderground v.1.15,2014-01-01 19:32:00,
2014-01-01 12:36:00,42.7,20.0,30.06,WNW,288,0.0,9.0,41,0.00,,,0.00,weatherlink.com 1.10,2014-01-01 19:36:00,
2014-01-01 12:37:00,42.4,20.9,30.06,WNW,293,3.0,-999.0,42,0.00,,,0.00,Wunderground v.1.15,2014-01-01 19:37:00,
2014-01-01 12:42:00,42.4,20.9,30.06,WNW,293,3.0,-999.0,42,0.00,,,0.00,Wunderground v.1.15,2014-01-01 19:42:00,
2014-01-01 12:47:00,43.4,19.5,30.05,WNW,293,3.0,-999.0,38,0.00,,,0.00,Wunderground v.1.15,2014-01-01 19:47:00,
2014-01-01 12:51:00,43.2,20.0,30.05,WNW,292,2.0,11.0,40,0.00,,,0.00,weatherlink.com 1.10,2014-01-01 19:51:00,
2014-01-01 12:52:00,43.4,19.5,30.05,WNW,293,3.0,-999.0,38,0.00,,,0.00,Wunderground v.1.15,2014-01-01 19:52:00,
2014-01-01 12:57:00,43.4,19.5,30.05,WNW,293,3.0,-999.0,38,0.00,,,0.00,Wunderground v.1.15,2014-01-01 19:57:00,
2014-01-01 13:02:00,43.4,19.5,30.05,WNW,293,3.0,-999.0,38,0.00,,,0.00,Wunderground v.1.15,2014-01-01 20:02:00,
2014-01-01 13:06:00,43.4,18.0,30.05,NW,307,7.0,13.0,36,0.00,,,0.00,weatherlink.com 1.10,2014-01-01 20:06:00,
2014-01-01 13:07:00,43.4,19.5,30.05,WNW,293,3.0,-999.0,38,0.00,,,0.00,Wunderground v.1.15,2014-01-01 20:07:00,
2014-01-01 13:12:00,43.4,19.5,30.05,WNW,293,3.0,-999.0,38,0.00,,,0.00,Wunderground v.1.15,2014-01-01 20:12:00,
2014-01-01 13:17:00,43.4,18.2,30.05,NW,315,4.0,-999.0,36,0.00,,,0.00,Wunderground v.1.15,2014-01-01 20:17:00,
2014-01-01 13:22:00,43.4,18.0,30.05,NW,319,1.0,12.0,36,0.00,,,0.00,weatherlink.com 1.10,2014-01-01 20:22:00,
2014-01-01 13:27:00,43.4,18.2,30.05,NW,315,4.0,-999.0,36,0.00,,,0.00,Wunderground v.1.15,2014-01-01 20:27:00,
2014-01-01 13:32:00,43.4,18.2,30.05,NW,315,4.0,-999.0,36,0.00,,,0.00,Wunderground v.1.15,2014-01-01 20:32:00,
2014-01-01 13:36:00,43.4,17.0,30.05,NNW,347,5.0,10.0,35,0.00,,,0.00,weatherlink.com 1.10,2014-01-01 20:36:00,
2014-01-01 13:37:00,43.4,18.2,30.05,NW,315,4.0,-999.0,36,0.00,,,0.00,Wunderground v.1.15,2014-01-01 20:37:00,
2014-01-01 13:42:00,43.4,18.2,30.05,NW,315,4.0,-999.0,36,0.00,,,0.00,Wunderground v.1.15,2014-01-01 20:42:00,
2014-01-01 13:47:00,43.2,18.6,30.06,NNW,338,5.0,-999.0,37,0.00,,,0.00,Wunderground v.1.15,2014-01-01 20:47:00,
2014-01-01 13:51:00,43.1,18.0,30.06,NNW,336,3.0,12.0,37,0.00,,,0.00,weatherlink.com 1.10,2014-01-01 20:51:00,
2014-01-01 13:52:00,43.2,18.6,30.06,NNW,338,5.0,-999.0,37,0.00,,,0.00,Wunderground v.1.15,2014-01-01 20:52:00,
2014-01-01 13:57:00,43.2,18.6,30.06,NNW,338,5.0,-999.0,37,0.00,,,0.00,Wunderground v.1.15,2014-01-01 20:57:00,
2014-01-01 14:02:00,43.2,18.6,30.06,NNW,338,5.0,-999.0,37,0.00,,,0.00,Wunderground v.1.15,2014-01-01 21:02:00,
2014-01-01 14:07:00,42.7,18.0,30.06,North,5,9.0,12.0,37,0.00,,,0.00,weatherlink.com 1.10,2014-01-01 21:07:00,
2014-01-01 14:12:00,43.2,18.6,30.06,NNW,338,5.0,-999.0,37,0.00,,,0.00,Wunderground v.1.15,2014-01-01 21:12:00,
2014-01-01 14:17:00,42.6,18.7,30.07,NNW,338,4.0,-999.0,38,0.00,,,0.00,Wunderground v.1.15,2014-01-01 21:17:00,
2014-01-01 14:22:00,42.7,17.0,30.06,NNW,347,2.0,11.0,36,0.00,,,0.00,weatherlink.com 1.10,2014-01-01 21:22:00,
2014-01-01 14:27:00,42.6,18.7,30.07,NNW,338,4.0,-999.0,38,0.00,,,0.00,Wunderground v.1.15,2014-01-01 21:27:00,
2014-01-01 14:32:00,42.6,18.7,30.07,NNW,338,4.0,-999.0,38,0.00,,,0.00,Wunderground v.1.15,2014-01-01 21:32:00,
2014-01-01 14:37:00,42.4,18.0,30.07,NNW,335,3.0,11.0,38,0.00,,,0.00,weatherlink.com 1.10,2014-01-01 21:37:00,
2014-01-01 14:42:00,42.6,18.7,30.07,NNW,338,4.0,-999.0,38,0.00,,,0.00,Wunderground v.1.15,2014-01-01 21:42:00,
2014-01-01 14:47:00,42.9,19.0,30.08,NNW,338,2.0,-999.0,38,0.00,,,0.00,Wunderground v.1.15,2014-01-01 21:47:00,
2014-01-01 14:52:00,42.7,19.0,30.07,NNW,327,3.0,8.0,38,0.00,,,0.00,weatherlink.com 1.10,2014-01-01 21:52:00,
2014-01-01 14:57:00,42.9,19.0,30.08,NNW,338,2.0,-999.0,38,0.00,,,0.00,Wunderground v.1.15,2014-01-01 21:57:00,
2014-01-01 15:02:00,42.9,19.0,30.08,NNW,338,2.0,-999.0,38,0.00,,,0.00,Wunderground v.1.15,2014-01-01 22:02:00,
2014-01-01 15:07:00,42.9,19.0,30.07,NW,308,2.0,8.0,38,0.00,,,0.00,weatherlink.com 1.10,2014-01-01 22:07:00,
2014-01-01 15:12:00,42.9,19.0,30.08,NNW,338,2.0,-999.0,38,0.00,,,0.00,Wunderground v.1.15,2014-01-01 22:12:00,
2014-01-01 15:17:00,42.7,18.2,30.07,NW,315,1.0,-999.0,37,0.00,,,0.00,Wunderground v.1.15,2014-01-01 22:17:00,
2014-01-01 15:22:00,42.3,19.0,30.07,NW,309,0.0,5.0,39,0.00,,,0.00,weatherlink.com 1.10,2014-01-01 22:22:00,
2014-01-01 15:27:00,42.7,18.2,30.07,NW,315,1.0,-999.0,37,0.00,,,0.00,Wunderground v.1.15,2014-01-01 22:27:00,
2014-01-01 15:32:00,42.7,18.2,30.07,NW,315,1.0,-999.0,37,0.00,,,0.00,Wunderground v.1.15,2014-01-01 22:32:00,
2014-01-01 15:37:00,42.8,18.0,30.07,NW,309,0.0,3.0,37,0.00,,,0.00,weatherlink.com 1.10,2014-01-01 22:37:00,
2014-01-01 15:42:00,42.7,18.2,30.07,NW,315,1.0,-999.0,37,0.00,,,0.00,Wunderground v.1.15,2014-01-01 22:42:00,
2014-01-01 15:47:00,42.3,17.8,30.08,NW,315,0.0,-999.0,37,0.00,,,0.00,Wunderground v.1.15,2014-01-01 22:47:00,
2014-01-01 15:52:00,42.4,18.0,30.08,NW,309,0.0,4.0,37,0.00,,,0.00,weatherlink.com 1.10,2014-01-01 22:52:00,
2014-01-01 15:57:00,42.3,17.8,30.08,NW,315,0.0,-999.0,37,0.00,,,0.00,Wunderground v.1.15,2014-01-01 22:57:00,
2014-01-01 16:02:00,42.3,17.8,30.08,NW,315,0.0,-999.0,37,0.00,,,0.00,Wunderground v.1.15,2014-01-01 23:02:00,
2014-01-01 16:07:00,42.3,17.0,30.09,NW,309,0.0,4.0,36,0.00,,,0.00,weatherlink.com 1.10,2014-01-01 23:07:00,
2014-01-01 16:12:00,42.3,17.8,30.08,NW,315,0.0,-999.0,37,0.00,,,0.00,Wunderground v.1.15,2014-01-01 23:12:00,
2014-01-01 16:17:00,40.5,17.5,30.10,NW,315,0.0,-999.0,39,0.00,,,0.00,Wunderground v.1.15,2014-01-01 23:17:00,
2014-01-01 16:22:00,40.9,18.0,30.10,NW,309,0.0,3.0,40,0.00,,,0.00,weatherlink.com 1.10,2014-01-01 23:22:00,
2014-01-01 16:27:00,40.5,17.5,30.10,NW,315,0.0,-999.0,39,0.00,,,0.00,Wunderground v.1.15,2014-01-01 23:27:00,
2014-01-01 16:32:00,40.5,17.5,30.10,NW,315,0.0,-999.0,39,0.00,,,0.00,Wunderground v.1.15,2014-01-01 23:32:00,
2014-01-01 16:37:00,39.8,17.0,30.10,NW,309,0.0,1.0,40,0.00,,,0.00,weatherlink.com 1.10,2014-01-01 23:37:00,
2014-01-01 16:42:00,40.5,17.5,30.10,NW,315,0.0,-999.0,39,0.00,,,0.00,Wunderground v.1.15,2014-01-01 23:42:00,
2014-01-01 16:47:00,33.0,15.4,30.11,NW,315,0.0,-999.0,48,0.00,,,0.00,Wunderground v.1.15,2014-01-01 23:47:00,
2014-01-01 16:52:00,35.1,16.0,30.11,NW,309,0.0,2.0,45,0.00,,,0.00,weatherlink.com 1.10,2014-01-01 23:52:00,
2014-01-01 16:57:00,33.0,15.4,30.11,NW,315,0.0,-999.0,48,0.00,,,0.00,Wunderground v.1.15,2014-01-01 23:57:00,
2014-01-01 17:02:00,33.0,15.4,30.11,NW,315,0.0,-999.0,48,0.00,,,0.00,Wunderground v.1.15,2014-01-02 00:02:00,
2014-01-01 17:07:00,31.8,14.0,30.11,NW,309,0.0,2.0,49,0.00,,,0.00,weatherlink.com 1.10,2014-01-02 00:07:00,
2014-01-01 17:12:00,33.0,15.4,30.11,NW,315,0.0,-999.0,48,0.00,,,0.00,Wunderground v.1.15,2014-01-02 00:12:00,
2014-01-01 17:17:00,29.1,14.5,30.13,NW,315,0.0,-999.0,54,0.00,,,0.00,Wunderground v.1.15,2014-01-02 00:17:00,
2014-01-01 17:22:00,29.7,14.0,30.13,NW,309,0.0,2.0,52,0.00,,,0.00,weatherlink.com 1.10,2014-01-02 00:22:00,
2014-01-01 17:27:00,29.1,14.5,30.13,NW,315,0.0,-999.0,54,0.00,,,0.00,Wunderground v.1.15,2014-01-02 00:27:00,
2014-01-01 17:32:00,29.1,14.5,30.13,NW,315,0.0,-999.0,54,0.00,,,0.00,Wunderground v.1.15,2014-01-02 00:32:00,
2014-01-01 17:37:00,28.7,14.0,30.14,NW,309,0.0,1.0,55,0.00,,,0.00,weatherlink.com 1.10,2014-01-02 00:37:00,
2014-01-01 17:42:00,29.1,14.5,30.13,NW,315,0.0,-999.0,54,0.00,,,0.00,Wunderground v.1.15,2014-01-02 00:42:00,
2014-01-01 17:47:00,28.9,14.7,30.15,NW,315,0.0,-999.0,55,0.00,,,0.00,Wunderground v.1.15,2014-01-02 00:47:00,
2014-01-01 17:52:00,28.6,14.0,30.15,NW,309,0.0,2.0,55,0.00,,,0.00,weatherlink.com 1.10,2014-01-02 00:52:00,
2014-01-01 17:57:00,28.9,14.7,30.15,NW,315,0.0,-999.0,55,0.00,,,0.00,Wunderground v.1.15,2014-01-02 00:57:00,
2014-01-01 18:02:00,28.9,14.7,30.15,NW,315,0.0,-999.0,55,0.00,,,0.00,Wunderground v.1.15,2014-01-02 01:02:00,
2014-01-01 18:07:00,29.2,14.0,30.16,NW,309,1.0,3.0,54,0.00,,,0.00,weatherlink.com 1.10,2014-01-02 01:07:00,
2014-01-01 18:12:00,28.9,14.7,30.15,NW,315,0.0,-999.0,55,0.00,,,0.00,Wunderground v.1.15,2014-01-02 01:12:00,
2014-01-01 18:17:00,28.3,13.8,30.17,NW,315,0.0,-999.0,54,0.00,,,0.00,Wunderground v.1.15,2014-01-02 01:17:00,
2014-01-01 18:22:00,29.3,14.0,30.17,NW,309,0.0,2.0,53,0.00,,,0.00,weatherlink.com 1.10,2014-01-02 01:22:00,
2014-01-01 18:27:00,28.3,13.8,30.17,NW,315,0.0,-999.0,54,0.00,,,0.00,Wunderground v.1.15,2014-01-02 01:27:00,
2014-01-01 18:32:00,28.3,13.8,30.17,NW,315,0.0,-999.0,54,0.00,,,0.00,Wunderground v.1.15,2014-01-02 01:32:00,
2014-01-01 18:37:00,27.8,13.0,30.18,NW,309,3.0,4.0,55,0.00,,,0.00,weatherlink.com 1.10,2014-01-02 01:37:00,
2014-01-01 18:42:00,28.3,13.8,30.17,NW,315,0.0,-999.0,54,0.00,,,0.00,Wunderground v.1.15,2014-01-02 01:42:00,
2014-01-01 18:47:00,26.6,13.8,30.19,NW,315,0.0,-999.0,58,0.00,,,0.00,Wunderground v.1.15,2014-01-02 01:47:00,
2014-01-01 18:52:00,27.1,14.0,30.18,NW,308,0.0,3.0,57,0.00,,,0.00,weatherlink.com 1.10,2014-01-02 01:52:00,
2014-01-01 18:57:00,26.6,13.8,30.19,NW,315,0.0,-999.0,58,0.00,,,0.00,Wunderground v.1.15,2014-01-02 01:57:00,
2014-01-01 19:02:00,26.6,13.8,30.19,NW,315,0.0,-999.0,58,0.00,,,0.00,Wunderground v.1.15,2014-01-02 02:02:00,
2014-01-01 19:07:00,27.1,14.0,30.19,NW,307,0.0,4.0,57,0.00,,,0.00,weatherlink.com 1.10,2014-01-02 02:07:00,
2014-01-01 19:12:00,26.6,13.8,30.19,NW,315,0.0,-999.0,58,0.00,,,0.00,Wunderground v.1.15,2014-01-02 02:12:00,
2014-01-01 19:17:00,27.4,13.3,30.19,NW,315,0.0,-999.0,55,0.00,,,0.00,Wunderground v.1.15,2014-01-02 02:17:00,
2014-01-01 19:22:00,27.5,14.0,30.19,NW,308,0.0,3.0,56,0.00,,,0.00,weatherlink.com 1.10,2014-01-02 02:22:00,
2014-01-01 19:27:00,27.4,13.3,30.19,NW,315,0.0,-999.0,55,0.00,,,0.00,Wunderground v.1.15,2014-01-02 02:27:00,
2014-01-01 19:32:00,27.4,13.3,30.19,NW,315,0.0,-999.0,55,0.00,,,0.00,Wunderground v.1.15,2014-01-02 02:32:00,
2014-01-01 19:37:00,27.1,13.0,30.19,NW,307,0.0,0.0,56,0.00,,,0.00,weatherlink.com 1.10,2014-01-02 02:37:00,
2014-01-01 19:42:00,27.4,13.3,30.19,NW,315,0.0,-999.0,55,0.00,,,0.00,Wunderground v.1.15,2014-01-02 02:42:00,
2014-01-01 19:47:00,27.1,13.5,30.20,NW,315,0.0,-999.0,56,0.00,,,0.00,Wunderground v.1.15,2014-01-02 02:47:00,
2014-01-01 19:52:00,26.9,13.0,30.20,NW,308,1.0,3.0,57,0.00,,,0.00,weatherlink.com 1.10,2014-01-02 02:52:00,
2014-01-01 19:57:00,27.1,13.5,30.20,NW,315,0.0,-999.0,56,0.00,,,0.00,Wunderground v.1.15,2014-01-02 02:57:00,
2014-01-01 20:02:00,27.1,13.5,30.20,NW,315,0.0,-999.0,56,0.00,,,0.00,Wunderground v.1.15,2014-01-02 03:02:00,
2014-01-01 20:07:00,27.3,13.0,30.20,NW,308,0.0,1.0,55,0.00,,,0.00,weatherlink.com 1.10,2014-01-02 03:07:00,
2014-01-01 20:12:00,27.1,13.5,30.20,NW,315,0.0,-999.0,56,0.00,,,0.00,Wunderground v.1.15,2014-01-02 03:12:00,
2014-01-01 20:17:00,25.2,12.9,30.22,NW,315,0.0,-999.0,59,0.00,,,0.00,Wunderground v.1.15,2014-01-02 03:17:00,
2014-01-01 20:22:00,26.1,13.0,30.21,NW,308,0.0,0.0,57,0.00,,,0.00,weatherlink.com 1.10,2014-01-02 03:22:00,
2014-01-01 20:27:00,25.2,12.9,30.22,NW,315,0.0,-999.0,59,0.00,,,0.00,Wunderground v.1.15,2014-01-02 03:27:00,
2014-01-01 20:32:00,25.2,12.9,30.22,NW,315,0.0,-999.0,59,0.00,,,0.00,Wunderground v.1.15,2014-01-02 03:32:00,
2014-01-01 20:37:00,24.6,13.0,30.22,NW,308,0.0,0.0,61,0.00,,,0.00,weatherlink.com 1.10,2014-01-02 03:37:00,
2014-01-01 20:42:00,25.2,12.9,30.22,NW,315,0.0,-999.0,59,0.00,,,0.00,Wunderground v.1.15,2014-01-02 03:42:00,
2014-01-01 20:47:00,23.6,12.8,30.22,NW,315,0.0,-999.0,63,0.00,,,0.00,Wunderground v.1.15,2014-01-02 03:47:00,
2014-01-01 20:52:00,23.4,12.0,30.22,NW,308,1.0,2.0,63,0.00,,,0.00,weatherlink.com 1.10,2014-01-02 03:52:00,
2014-01-01 20:57:00,23.6,12.8,30.22,NW,315,0.0,-999.0,63,0.00,,,0.00,Wunderground v.1.15,2014-01-02 03:57:00,
2014-01-01 21:02:00,23.6,12.8,30.22,NW,315,0.0,-999.0,63,0.00,,,0.00,Wunderground v.1.15,2014-01-02 04:02:00,
2014-01-01 21:07:00,23.5,13.0,30.22,NW,308,0.0,0.0,63,0.00,,,0.00,weatherlink.com 1.10,2014-01-02 04:07:00,
2014-01-01 21:12:00,23.6,12.8,30.22,NW,315,0.0,-999.0,63,0.00,,,0.00,Wunderground v.1.15,2014-01-02 04:12:00,
2014-01-01 21:17:00,22.4,12.4,30.22,NW,315,0.0,-999.0,65,0.00,,,0.00,Wunderground v.1.15,2014-01-02 04:17:00,
2014-01-01 21:22:00,22.7,12.0,30.23,NW,307,0.0,1.0,64,0.00,,,0.00,weatherlink.com 1.10,2014-01-02 04:22:00,
2014-01-01 21:27:00,22.4,12.4,30.22,NW,315,0.0,-999.0,65,0.00,,,0.00,Wunderground v.1.15,2014-01-02 04:27:00,
2014-01-01 21:32:00,22.4,12.4,30.22,NW,315,0.0,-999.0,65,0.00,,,0.00,Wunderground v.1.15,2014-01-02 04:32:00,
2014-01-01 21:37:00,22.1,12.0,30.23,NW,307,2.0,3.0,65,0.00,,,0.00,weatherlink.com 1.10,2014-01-02 04:37:00,
2014-01-01 21:42:00,22.4,12.4,30.22,NW,315,0.0,-999.0,65,0.00,,,0.00,Wunderground v.1.15,2014-01-02 04:42:00,
2014-01-01 21:47:00,22.4,12.4,30.23,NW,315,0.0,-999.0,65,0.00,,,0.00,Wunderground v.1.15,2014-01-02 04:47:00,
2014-01-01 21:52:00,22.3,12.0,30.23,NW,307,0.0,3.0,65,0.00,,,0.00,weatherlink.com 1.10,2014-01-02 04:52:00,
2014-01-01 21:57:00,22.4,12.4,30.23,NW,315,0.0,-999.0,65,0.00,,,0.00,Wunderground v.1.15,2014-01-02 04:57:00,
2014-01-01 22:02:00,22.4,12.4,30.23,NW,315,0.0,-999.0,65,0.00,,,0.00,Wunderground v.1.15,2014-01-02 05:02:00,
2014-01-01 22:07:00,22.5,12.0,30.23,NW,308,0.0,3.0,64,0.00,,,0.00,weatherlink.com 1.10,2014-01-02 05:07:00,
2014-01-01 22:12:00,22.4,12.4,30.23,NW,315,0.0,-999.0,65,0.00,,,0.00,Wunderground v.1.15,2014-01-02 05:12:00,
2014-01-01 22:17:00,20.8,10.9,30.24,NW,315,0.0,-999.0,65,0.00,,,0.00,Wunderground v.1.15,2014-01-02 05:17:00,
2014-01-01 22:22:00,21.8,11.0,30.23,NW,308,0.0,0.0,64,0.00,,,0.00,weatherlink.com 1.10,2014-01-02 05:22:00,
2014-01-01 22:27:00,20.8,10.9,30.24,NW,315,0.0,-999.0,65,0.00,,,0.00,Wunderground v.1.15,2014-01-02 05:27:00,
2014-01-01 22:32:00,20.8,10.9,30.24,NW,315,0.0,-999.0,65,0.00,,,0.00,Wunderground v.1.15,2014-01-02 05:32:00,
2014-01-01 22:37:00,20.2,11.0,30.24,NW,307,0.0,1.0,67,0.00,,,0.00,weatherlink.com 1.10,2014-01-02 05:37:00,
2014-01-01 22:42:00,20.8,10.9,30.24,NW,315,0.0,-999.0,65,0.00,,,0.00,Wunderground v.1.15,2014-01-02 05:42:00,
2014-01-01 22:47:00,20.0,11.1,30.25,NW,315,0.0,-999.0,68,0.00,,,0.00,Wunderground v.1.15,2014-01-02 05:47:00,
2014-01-01 22:52:00,19.9,11.0,30.25,NW,307,0.0,2.0,69,0.00,,,0.00,weatherlink.com 1.10,2014-01-02 05:52:00,
2014-01-01 22:57:00,20.0,11.1,30.25,NW,315,0.0,-999.0,68,0.00,,,0.00,Wunderground v.1.15,2014-01-02 05:57:00,
2014-01-01 23:02:00,20.0,11.1,30.25,NW,315,0.0,-999.0,68,0.00,,,0.00,Wunderground v.1.15,2014-01-02 06:02:00,
2014-01-01 23:07:00,19.8,11.0,30.25,NW,307,0.0,1.0,68,0.00,,,0.00,weatherlink.com 1.10,2014-01-02 06:07:00,
2014-01-01 23:12:00,20.0,11.1,30.25,NW,315,0.0,-999.0,68,0.00,,,0.00,Wunderground v.1.15,2014-01-02 06:12:00,
2014-01-01 23:17:00,19.7,11.2,30.25,NW,315,0.0,-999.0,69,0.00,,,0.00,Wunderground v.1.15,2014-01-02 06:17:00,
2014-01-01 23:22:00,19.7,11.0,30.25,NW,307,0.0,2.0,70,0.00,,,0.00,weatherlink.com 1.10,2014-01-02 06:22:00,
2014-01-01 23:27:00,19.7,11.2,30.25,NW,315,0.0,-999.0,69,0.00,,,0.00,Wunderground v.1.15,2014-01-02 06:27:00,
2014-01-01 23:32:00,19.7,11.2,30.25,NW,315,0.0,-999.0,69,0.00,,,0.00,Wunderground v.1.15,2014-01-02 06:32:00,
2014-01-01 23:37:00,19.7,11.0,30.26,NW,307,0.0,2.0,69,0.00,,,0.00,weatherlink.com 1.10,2014-01-02 06:37:00,
2014-01-01 23:42:00,19.7,11.2,30.25,NW,315,0.0,-999.0,69,0.00,,,0.00,Wunderground v.1.15,2014-01-02 06:42:00,
2014-01-01 23:47:00,19.1,10.6,30.26,NW,315,0.0,-999.0,69,0.00,,,0.00,Wunderground v.1.15,2014-01-02 06:47:00,
2014-01-01 23:52:00,19.2,11.0,30.26,NW,307,0.0,3.0,69,0.00,,,0.00,weatherlink.com 1.10,2014-01-02 06:52:00,
2014-01-01 23:57:00,19.1,10.6,30.26,NW,315,0.0,-999.0,69,0.00,,,0.00,Wunderground v.1.15,2014-01-02 06:57:00,